カタログに戻る

STARLINK-3604

運用中通信VLEO
NORAD 51815·PAYLOAD·🇺🇸 United States

打ち上げ Feb 25, 2022 から Vandenberg Space Force Base

Loading…

次のパス (今後24時間)

TLE

最新Source: CelesTrak SupGP

元期: Sep 14, 2026, 21:07 UTC

1 51815C 22017AZ  26257.88034722 -.00012780  00000+0 -41098-3 0  2579
2 51815  53.1586 186.5062 0001342  90.1302 300.5491 15.31707955    19

AllMySatでSTARLINK-3604をリアルタイム追跡

Download on the App Store